This is the latest recevied weather packets stored in our database for station/object N3WGC-14. If no packets are shown the sender has not sent any weather packets the latest 10 day(s).
| Time | Temp. | Humidity | Pressure | Rain* | Wind** | Luminosity | Snow |
|---|---|---|---|---|---|---|---|
| 1777649041 | 13.33° C | 60% | 1015.4 hPa | 0 mm | - | - | - |
| 1777648741 | 13.33° C | 61% | 1015.4 hPa | 0 mm | - | - | - |
| 1777648441 | 13.33° C | 59% | 1015.3 hPa | 0 mm | - | - | - |
| 1777648141 | 13.33° C | 60% | 1015.4 hPa | 0 mm | - | - | - |
| 1777647841 | 13.33° C | 59% | 1015.3 hPa | 0 mm | - | - | - |
| 1777647541 | 13.33° C | 60% | 1015.3 hPa | 0 mm | - | - | - |
| 1777647241 | 13.89° C | 55% | 1015.3 hPa | 0 mm | - | - | - |
| 1777646941 | 13.89° C | 53% | 1015.3 hPa | 0 mm | - | - | - |
| 1777646640 | 13.89° C | 51% | 1015.4 hPa | 0 mm | - | - | - |
| 1777646340 | 13.89° C | 54% | 1015.3 hPa | 0 mm | - | - | - |
| 1777646040 | 13.33° C | 55% | 1015.4 hPa | 0 mm | - | - | - |
| 1777645740 | 13.33° C | 55% | 1015.5 hPa | 0 mm | - | - | - |
| 1777645440 | 13.89° C | 60% | 1015.6 hPa | 0 mm | - | - | - |
| 1777645140 | 13.33° C | 59% | 1015.6 hPa | 0 mm | - | - | - |
| 1777644839 | 13.33° C | 58% | 1015.6 hPa | 0 mm | - | - | - |
| 1777644539 | 13.33° C | 59% | 1015.6 hPa | 0 mm | - | - | - |
| 1777644239 | 12.78° C | 61% | 1015.6 hPa | 0 mm | - | - | - |
| 1777643939 | 13.33° C | 57% | 1015.6 hPa | 0 mm | - | - | - |
| 1777643639 | 13.33° C | 61% | 1015.5 hPa | 0 mm | - | - | - |
| 1777643339 | 13.33° C | 63% | 1015.6 hPa | 0 mm | - | - | - |
| 1777643039 | 12.78° C | 64% | 1015.6 hPa | 0 mm | - | - | - |
| 1777642738 | 12.78° C | 66% | 1015.6 hPa | 0 mm | - | - | - |
| 1777642438 | 12.22° C | 66% | 1015.6 hPa | 0 mm | - | - | - |
| 1777642138 | 12.78° C | 68% | 1015.7 hPa | 0 mm | - | - | - |
| 1777641838 | 12.78° C | 68% | 1015.7 hPa | 0 mm | - | - | - |
* Rain latest hour (hover to see other rain measurements)
** Current wind speed in m/s (hover to see current wind gust speed)